TimeEST,TemperatureF,Dew PointF,Humidity,Sea Level PressureIn,VisibilityMPH,Wind Direction,Wind SpeedMPH,Gust SpeedMPH,PrecipitationIn,Events,Conditions,WindDirDegrees,DateUTC
12:53 AM,36.0,34.0,93,29.98,8.0,Calm,Calm,-,0.03,Rain,Light Rain,0,2013-02-16 05:53:00
1:16 AM,35.6,35.6,100,29.96,6.0,Calm,Calm,-,0.00,Rain,Light Rain,0,2013-02-16 06:16:00
1:53 AM,36.0,35.1,97,29.96,5.0,Calm,Calm,-,0.01,Rain,Light Rain,0,2013-02-16 06:53:00
2:09 AM,35.6,35.6,100,29.95,3.0,Calm,Calm,-,0.00,Rain,Light Rain,0,2013-02-16 07:09:00
2:53 AM,35.1,34.0,96,29.94,4.0,Calm,Calm,-,0.00,,Overcast,0,2013-02-16 07:53:00
3:39 AM,33.8,33.8,100,29.92,2.0,Calm,Calm,-,0.00,,Overcast,0,2013-02-16 08:39:00
3:48 AM,33.8,33.8,100,29.92,1.5,Calm,Calm,-,N/A,,Overcast,0,2013-02-16 08:48:00
3:53 AM,34.0,33.1,96,29.93,1.8,Calm,Calm,-,0.00,,Overcast,0,2013-02-16 08:53:00
4:02 AM,33.8,33.8,100,29.92,2.5,Calm,Calm,-,N/A,,Overcast,0,2013-02-16 09:02:00
4:07 AM,33.8,33.8,100,29.93,3.0,Calm,Calm,-,N/A,,Overcast,0,2013-02-16 09:07:00
4:14 AM,33.8,33.8,100,29.93,2.5,Calm,Calm,-,N/A,,Overcast,0,2013-02-16 09:14:00
4:31 AM,35.6,33.8,93,29.93,4.0,Calm,Calm,-,N/A,,Overcast,0,2013-02-16 09:31:00
4:53 AM,35.1,33.1,92,29.94,10.0,North,4.6,-,0.01,,Overcast,350,2013-02-16 09:53:00
5:01 AM,35.6,32.0,87,29.93,10.0,NNW,5.8,-,N/A,,Overcast,340,2013-02-16 10:01:00
5:53 AM,35.1,30.0,82,29.94,10.0,NW,4.6,-,N/A,,Overcast,320,2013-02-16 10:53:00
6:53 AM,35.6,28.4,75,29.94,10.0,NNW,4.6,-,N/A,,Overcast,340,2013-02-16 11:53:00
7:53 AM,35.1,27.0,72,29.96,10.0,North,3.5,-,N/A,,Overcast,360,2013-02-16 12:53:00
8:53 AM,34.0,26.1,73,29.95,10.0,NNW,6.9,-,N/A,,Overcast,340,2013-02-16 13:53:00
9:53 AM,35.1,24.1,64,29.94,10.0,North,8.1,-,N/A,,Mostly Cloudy,360,2013-02-16 14:53:00
10:53 AM,36.0,21.9,57,29.94,10.0,North,9.2,-,N/A,,Mostly Cloudy,350,2013-02-16 15:53:00
11:53 AM,37.0,23.0,57,29.91,10.0,NNW,11.5,-,N/A,,Mostly Cloudy,330,2013-02-16 16:53:00
12:53 PM,36.0,23.0,59,29.91,10.0,NNW,6.9,-,N/A,,Scattered Clouds,340,2013-02-16 17:53:00
1:53 PM,36.0,21.0,55,29.88,10.0,North,5.8,-,N/A,,Mostly Cloudy,350,2013-02-16 18:53:00
2:53 PM,37.0,21.0,52,29.86,10.0,North,5.8,-,N/A,,Mostly Cloudy,10,2013-02-16 19:53:00
3:53 PM,37.0,19.0,48,29.86,10.0,North,6.9,-,N/A,,Overcast,350,2013-02-16 20:53:00
4:53 PM,36.0,19.0,50,29.86,10.0,NNW,5.8,-,N/A,,Overcast,340,2013-02-16 21:53:00
5:53 PM,34.0,16.0,48,29.86,10.0,NNW,6.9,-,N/A,,Overcast,340,2013-02-16 22:53:00
6:53 PM,33.1,16.0,50,29.84,10.0,NNW,6.9,-,N/A,,Overcast,340,2013-02-16 23:53:00
7:53 PM,33.1,15.1,48,29.83,10.0,NNW,8.1,-,N/A,,Overcast,340,2013-02-17 00:53:00
8:53 PM,33.1,14.0,46,29.83,10.0,North,10.4,19.6,N/A,,Overcast,350,2013-02-17 01:53:00
9:53 PM,32.0,12.9,45,29.82,10.0,North,12.7,21.9,N/A,,Overcast,350,2013-02-17 02:53:00
10:53 PM,30.9,10.0,42,29.79,10.0,NNW,11.5,-,N/A,,Overcast,340,2013-02-17 03:53:00
11:53 PM,30.0,9.0,41,29.77,10.0,NNW,11.5,-,N/A,,Overcast,340,2013-02-17 04:53:00